AI4ZL Weather Reports


time (UTC)temp
F
wind
direction
speed
knots
gust
knots
rain 1hr
in
rain 24hr
in
rain mn
in
humidity
%
barometer
mb
20260508063053 45 0.0 0.0 0.00 0.00 0.00 98 1017.6
20260508062020 45 0.0 0.0 0.00 0.00 0.00 98 1017.6
20260508061025 45 0.0 0.0 0.00 0.00 0.00 98 1017.6
20260508060030 45 0.0 0.0 0.00 0.00 0.00 98 1017.7
20260508055018 46 0.0 0.0 0.00 0.00 0.00 98 1017.7
20260508054023 46 0.0 0.0 0.00 0.00 0.00 98 1017.7
20260508053028 46 0.0 0.0 0.00 0.00 0.00 98 1017.4
20260508052017 46 0.0 0.0 0.00 0.00 0.00 98 1017.6
20260508051021 46 0.0 0.9 0.00 0.00 0.00 98 1017.6
20260508050047 46 0.0 0.0 0.00 0.00 0.00 97 1017.7
20260508045031 46 0.0 0.0 0.00 0.00 0.00 97 1017.7
20260508044040 47 326 0.0 0.9 0.00 0.00 0.00 97 1017.6
20260508043024 47 0.0 0.0 0.00 0.00 0.00 97 1017.4
20260508042029 47 0.0 0.0 0.00 0.00 0.00 97 1017.5
20260508041018 47 0.0 0.0 0.00 0.00 0.00 96 1017.4
20260508040022 47 0.0 0.0 0.00 0.00 0.00 96 1017.5
20260508035027 48 0.0 0.0 0.00 0.00 0.00 96 1017.7
20260508034032 48 0.0 0.0 0.00 0.00 0.00 95 1017.7
20260508033020 48 0.0 0.0 0.00 0.00 0.00 95 1017.5
20260508032024 49 0.0 0.0 0.00 0.00 0.00 94 1017.4
20260508031030 49 0.0 0.0 0.00 0.00 0.00 94 1017.4
20260508030018 49 0.0 0.0 0.00 0.00 0.00 93 1017.5
20260508025023 49 0.0 0.0 0.00 0.00 0.00 92 1017.4
20260508024048 50 0.0 0.0 0.00 0.00 0.00 91 1017.2
20260508023033 49 0.0 0.0 0.00 0.00 0.00 89 1017.3
20260508022020 50 0.0 0.0 0.00 0.00 0.00 88 1017.3
20260508021025 51 0.0 0.0 0.00 0.00 0.00 87 1017.1
20260508020052 51 0.0 0.0 0.00 0.00 0.00 84 1017.0
20260508015018 52 0.0 0.0 0.00 0.00 0.00 82 1017.1
20260508014045 53 0.0 0.0 0.00 0.00 0.00 79 1016.9
20260508013028 53 0.0 0.0 0.00 0.00 0.00 78 1016.8
20260508012016 54 0.0 0.0 0.00 0.00 0.00 74 1016.8
20260508011022 55 0.0 0.0 0.00 0.00 0.00 76 1016.7
20260508010047 56 325 0.0 0.9 0.00 0.00 0.00 72 1016.6
20260508005051 58 0.0 0.0 0.00 0.00 0.00 65 1016.4
20260508004039 59 0.0 0.0 0.00 0.00 0.00 60 1016.4
20260508003045 61 0.0 0.0 0.00 0.00 0.00 57 1016.3
20260508002029 63 0.0 0.0 0.00 0.00 0.00 50 1016.2
20260508001017 64 0.0 0.0 0.00 0.00 0.00 48 1016.4
20260508000022 67 284 0.0 0.9 0.00 0.00 0.00 41 1016.3
20260507235027 66 294 0.9 1.7 0.00 0.00 0.00 37 1016.2
20260507234032 66 267 0.9 1.7 0.00 0.00 0.00 38 1016.1
20260507233020 67 292 1.7 3.5 0.00 0.00 0.00 40 1016.5
20260507232025 67 296 0.0 0.9 0.00 0.00 0.00 37 1016.4
20260507231030 67 296 0.9 1.7 0.00 0.00 0.00 36 1016.4
20260507230039 67 322 1.7 3.5 0.00 0.00 0.00 37 1016.5
20260507225023 67 272 2.6 5.2 0.00 0.00 0.00 38 1016.6
20260507224028 68 286 2.6 6.1 0.00 0.00 0.00 37 1016.7
20260507223015 67 289 1.7 7.0 0.00 0.00 0.00 38 1016.7
20260507222020 67 266 2.6 5.2 0.00 0.00 0.00 38 1016.6
20260507221026 68 304 2.6 8.7 0.00 0.00 0.00 38 1016.6
20260507220032 70 272 0.9 1.7 0.00 0.00 0.00 35 1016.8
20260507215019 70 49 0.9 1.7 0.00 0.00 0.00 38 1016.9
20260507214023 67 332 2.6 5.2 0.00 0.00 0.00 39 1016.6
20260507213028 68 284 0.9 5.2 0.00 0.00 0.00 38 1016.6
20260507212016 68 270 2.6 6.1 0.00 0.00 0.00 40 1016.6
20260507211022 67 242 0.9 3.5 0.00 0.00 0.00 38 1016.7
20260507210027 67 291 1.7 5.2 0.00 0.00 0.00 39 1016.7
20260507205032 67 261 3.5 7.8 0.00 0.00 0.00 41 1016.6
20260507204019 67 121 0.9 5.2 0.00 0.00 0.00 40 1016.8
20260507203025 69 292 2.6 7.0 0.00 0.00 0.00 39 1017.0
20260507202029 69 346 1.7 5.2 0.00 0.00 0.00 40 1016.9
20260507201038 68 56 0.9 1.7 0.00 0.00 0.00 39 1017.1
20260507200043 67 289 1.7 3.5 0.00 0.00 0.00 42 1017.1
20260507195027 68 300 2.6 6.1 0.00 0.00 0.00 41 1017.1
20260507194038 69 299 0.9 1.7 0.00 0.00 0.00 39 1017.5
20260507193041 67 293 0.9 2.6 0.00 0.00 0.00 42 1017.5
20260507192025 65 290 1.7 8.7 0.00 0.00 0.00 43 1017.5
20260507191030 66 85 0.9 1.7 0.00 0.00 0.00 40 1017.4
20260507190018 67 306 1.7 5.2 0.00 0.00 0.00 42 1017.7
20260507185023 66 294 0.9 2.6 0.00 0.00 0.00 40 1017.7
20260507184049 65 345 1.7 7.0 0.00 0.00 0.00 42 1017.8
20260507183033 64 298 2.6 7.0 0.00 0.00 0.00 42 1017.8
20260507182021 66 310 0.9 5.2 0.00 0.00 0.00 42 1018.0
20260507181026 63 229 0.9 5.2 0.00 0.00 0.00 40 1018.0
20260507180031 64 336 3.5 7.0 0.00 0.00 0.00 41 1018.1
20260507175018 65 340 2.6 6.1 0.00 0.00 0.00 42 1018.3
20260507174024 64 162 0.9 6.1 0.00 0.00 0.00 43 1018.3
20260507173029 64 330 0.9 6.1 0.00 0.00 0.00 41 1018.3
20260507172016 64 332 1.7 3.5 0.00 0.00 0.00 42 1018.5
20260507171042 63 40 0.9 2.6 0.00 0.00 0.00 46 1018.6
20260507170027 64 313 0.9 3.5 0.00 0.00 0.00 43 1018.7
20260507165032 64 293 0.9 2.6 0.00 0.00 0.00 42 1018.9
20260507164019 64 313 0.9 2.6 0.00 0.00 0.00 42 1019.1
20260507163024 62 327 2.6 6.1 0.00 0.00 0.00 44 1019.1
20260507162029 64 216 0.9 1.7 0.00 0.00 0.00 45 1019.1
20260507161018 62 294 0.9 3.5 0.00 0.00 0.00 45 1019.0
20260507160022 63 18 0.9 3.5 0.00 0.00 0.00 46 1019.2
20260507155027 61 303 2.6 6.1 0.00 0.00 0.00 49 1019.1
20260507154032 62 305 0.9 3.5 0.00 0.00 0.00 48 1019.3
20260507153020 62 23 0.0 2.6 0.00 0.00 0.00 47 1019.2
20260507152025 60 289 1.7 2.6 0.00 0.00 0.00 50 1019.2
20260507151031 61 330 1.7 2.6 0.00 0.00 0.00 49 1019.0
20260507150018 62 318 0.9 1.7 0.00 0.00 0.00 51 1019.2
20260507145023 61 337 0.0 2.6 0.00 0.00 0.00 53 1019.3
20260507144028 59 51 0.9 1.7 0.00 0.00 0.00 56 1019.3
20260507143036 59 29 0.9 1.7 0.00 0.00 0.00 59 1019.4
20260507142021 59 83 0.0 0.9 0.00 0.00 0.00 59 1019.4
20260507141026 59 0.0 0.9 0.00 0.00 0.00 62 1019.2
20260507140031 58 73 0.9 2.6 0.00 0.00 0.00 64 1019.1
20260507135100 56 70 0.9 2.6 0.00 0.00 0.00 65 1019.3
20260507134024 56 57 0.9 3.5 0.00 0.00 0.00 67 1019.3
20260507133050 54 108 0.9 2.6 0.00 0.00 0.00 69 1019.1
20260507132037 55 100 0.9 2.6 0.00 0.00 0.00 68 1019.3
20260507131022 54 0.0 0.9 0.00 0.00 0.00 71 1019.2
20260507130048 54 62 0.0 0.9 0.00 0.00 0.00 72 1019.1
20260507125031 53 58 0.0 0.9 0.00 0.00 0.00 81 1019.1
20260507124040 50 0.0 0.9 0.00 0.00 0.00 95 1019.1
20260507123024 48 208 0.0 0.9 0.00 0.00 0.00 99 1019.1
20260507122031 46 0.0 0.0 0.00 0.00 0.00 99 1018.9
20260507121017 44 0.0 0.0 0.00 0.00 0.00 99 1018.7
20260507120022 44 0.0 0.0 0.00 0.00 0.00 99 1018.7
20260507115048 43 0.0 0.0 0.00 0.00 0.00 99 1018.4
20260507114016 42 0.0 0.0 0.00 0.00 0.00 99 1018.4
20260507113023 42 0.0 0.0 0.00 0.00 0.00 99 1018.3
20260507112025 42 0.0 0.0 0.00 0.00 0.00 99 1018.4
20260507111030 42 0.0 0.0 0.00 0.00 0.00 99 1018.4
20260507110035 42 0.0 0.0 0.00 0.00 0.00 99 1018.5
20260507105102 41 0.0 0.0 0.00 0.00 0.00 99 1018.4
20260507104045 42 0.0 0.0 0.00 0.00 0.00 99 1018.2
20260507103033 42 0.0 0.0 0.00 0.00 0.00 99 1018.2
20260507102038 42 0.0 0.0 0.00 0.00 0.00 99 1018.3
20260507101043 43 0.0 0.0 0.00 0.00 0.00 99 1018.3
20260507100032 43 0.0 0.0 0.00 0.00 0.00 99 1018.2
20260507095057 43 0.0 0.0 0.00 0.00 0.00 99 1018.2
20260507094041 43 0.0 0.0 0.00 0.00 0.00 99 1018.0
20260507093046 44 0.0 0.0 0.00 0.00 0.00 99 1018.1
20260507092034 44 0.0 0.0 0.00 0.00 0.00 99 1018.0
20260507091059 44 0.0 0.0 0.00 0.00 0.00 99 1018.1
20260507090027 44 0.0 0.0 0.00 0.01 0.00 99 1018.0
20260507085032 44 0.0 0.0 0.00 0.04 0.00 99 1017.9
20260507084021 44 0.0 0.0 0.00 0.04 0.00 99 1017.8
20260507083025 44 0.0 0.0 0.00 0.04 0.00 99 1017.4
20260507082030 45 0.0 0.0 0.00 0.05 0.00 99 1017.5
20260507081017 45 0.0 0.0 0.00 0.05 0.00 99 1017.5
20260507080023 45 0.0 0.0 0.00 0.05 0.00 99 1017.4
20260507075028 45 0.0 0.0 0.00 0.05 0.00 99 1017.4
20260507074033 45 0.0 0.0 0.00 0.05 0.00 98 1017.3
20260507073038 45 0.0 0.0 0.00 0.05 0.00 98 1017.3
20260507072026 46 0.0 0.0 0.00 0.05 0.00 98 1017.3
20260507071052 46 0.0 0.0 0.00 0.05 0.00 98 1017.4
20260507070018 46 0.0 0.0 0.00 0.05 0.00 98 1017.4
20260507065024 47 0.0 0.0 0.00 0.05 0.00 98 1017.4
20260507064028 47 0.0 0.0 0.00 0.05 0.00 98 1017.6